Regional Weather Roundup
Issued by NWS Bismarck, ND

Home | Current Version | Previous Version | Text Only | Print | Product List | Glossary On
Versions: 1 2 3 4 5 6 7 8 9 10 11 12 13 14 15 16 17 18 19 20 21 22 23 24 25 26 27 28 29 30 31 32 33 34 35 36 37 38 39 40 41 42 43 44 45 46 47 48 49 50
000
ASUS43 KBIS 131759
RWRBIS

NWR BROADCAST TEXT
NATIONAL WEATHER SERVICE BISMARCK ND
100 PM CDT SUN JUL 13 2014

NOTE: "FAIR" INDICATES FEW OR NO CLOUDS BELOW 12,000 FEET WITH NO
SIGNIFICANT WEATHER AND/OR OBSTRUCTIONS TO VISIBILITY.


CITY           SKY/WX    TMP DP  RH WIND       PRES   REMARKS
WILLISTON      SUNNY     73  35  25 NW15G26   30.15F
MINOT          SUNNY     70  44  39 W17G28    30.05F
MINOT AFB      NOT AVBL
BISMARCK       SUNNY     73  42  32 NW16      30.09F
DICKINSON      MOSUNNY   72  42  34 NW20      30.13F
GARRISON         N/A     70  43  37 NW23G29   30.08F
HETTINGER ARPT SUNNY     73  53  49 MISG      30.16F
JAMESTOWN      NOT AVBL
MANDAN         FAIR      70  45  40 W16       30.10F
$$

CITY           SKY/WX    TMP DP  RH WIND       PRES   REMARKS
GRAND FORKS    PTSUNNY   68  46  45 NW21G30   29.93S
GRAND FORKS AF NOT AVBL
DEVILS LAKE    PTSUNNY   68  43  40 NW24      29.96F
FARGO          SUNNY     74  44  34 W18G29    29.95F
GWINNER        CLEAR     72  45  37 NW21      30.02F
$$

CITY           SKY/WX    TMP DP  RH WIND       PRES   REMARKS
ABERDEEN       SUNNY     75  51  43 NW16      30.03F
MOBRIDGE       SUNNY     73  54  51 NW12      30.07F
RAPID CITY     SUNNY     81  48  31 N9        30.18F
SIDNEY         SUNNY     73  39  29 N15       30.17F
GLENDIVE       SUNNY     75  39  27 N13G22    30.19F
$$

CITY           SKY/WX    TMP DP  RH WIND       PRES   REMARKS
$$




USA.gov is the U.S. government's official web portal to all federal, state and local government web resources and services.